[[{"header":{"parameterUnit":"m.s-1","parameterCategory":1,"la1":30.2991,"la2":30.254,"lo1":-89.0895,"lo2":-89.0444,"dy":0.0017,"dx":0.0017,"nx":28,"ny":28,"refTime":"2025-07-08T21:00:00:Z","depth":0,"parameterNumber":2,"parameterNumberName":"U-component_of_WINDS"},"data":[0,0,0,0,0,0,0,0,0,0,0,0,0,0,0,0,0,0,0,0,0,0,0,0,0,0,0,0,0,0,0,0,0,0,0,0,0,0,0,0,0,0,0,0,0,0,0,0,0,0,0,0,0,0,0,0,0,0,3.1738,3.1738,0,3.1806,3.1807,3.1808,3.1764,3.1762,3.176,3.1758,3.1833,3.1837,3.1841,0,0,0,0,0,0,0,0,0,0,0,0,0,3.1575,3.1578,3.1738,3.1739,3.1739,3.1806,3.1807,3.1808,3.1764,3.1762,3.1759,3.1757,3.1832,3.1837,3.1841,0,0,0,0,0,0,0,0,0,0,0,0,0,3.1645,3.1579,3.1738,3.1726,3.1725,3.1806,3.1807,3.1808,3.1765,3.1762,3.1759,3.1756,3.1831,3.1836,3.1842,3.194,0,0,3.186,3.1863,0,0,0,0,0,0,0,0,3.1641,3.1651,3.1726,3.1726,3.1726,3.1773,3.1777,3.1853,3.1766,3.175,3.1758,3.1754,3.1816,3.1823,3.1843,3.1944,3.1947,3.1861,3.1864,3.1867,3.1868,0,0,0,0,0,0,0,3.1636,3.1648,3.1765,3.1728,3.1727,3.1719,3.1725,3.1791,3.18,3.1751,3.1748,3.1756,3.1816,3.1837,3.1844,3.1948,3.186,3.1866,3.1869,3.1872,3.2135,3.2138,0,0,0,0,0,0,3.1632,3.1644,3.1763,3.1767,3.1675,3.1724,3.1731,3.1761,3.1799,3.1801,3.1759,3.1754,3.1829,3.1837,3.1847,3.1966,3.1867,3.1872,3.1876,3.2132,3.2136,3.214,0,0,0,0,0,0,3.1628,3.1643,3.176,3.1705,3.1719,3.173,3.1764,3.1764,3.1786,3.1805,3.1807,3.1779,3.1827,3.1839,3.1917,3.1968,3.1875,3.188,3.2128,3.2133,3.2138,3.2203,0,0,0,0,0,0,3.1624,3.1642,3.1678,3.1706,3.1722,3.1828,3.1767,3.1768,3.1796,3.179,3.1824,3.1827,3.1825,3.1909,3.1923,3.1974,3.1885,3.2123,3.213,3.2136,3.2197,3.221,3.2221,0,0,0,0,0,3.1618,3.1694,3.168,3.1694,3.1767,3.1831,3.184,3.1835,3.18,3.1837,3.1849,3.1826,3.1959,3.1917,3.1933,3.1987,3.212,3.2128,3.2136,3.2191,3.2207,3.2221,0,0,0,0,0,0,3.1673,3.1697,3.1682,3.1768,3.1798,3.1823,3.187,3.1852,3.1893,3.1886,3.188,3.1888,3.1971,3.1986,3.1939,3.2085,3.2035,3.2046,3.2071,3.2087,3.2099,3.2094,3.189,0,0,0,0,0,3.1695,3.1743,3.1762,3.1837,3.1852,3.1859,3.1886,3.188,3.191,3.1923,3.1941,3.1973,3.2023,3.2055,3.2102,3.2198,3.2207,3.2243,3.2255,3.2266,3.2276,3.233,3.2347,3.2165,3.2165,3.2165,0,0,3.1741,3.176,3.1791,3.1849,3.187,3.1922,3.187,3.1926,3.1966,3.1932,3.2008,3.2022,3.2058,3.2147,3.2187,3.2162,3.2328,3.2275,3.2283,3.2288,3.234,3.2357,3.2373,3.2171,3.217,3.2169,0,0,3.1852,3.1871,3.1936,3.1959,3.1992,3.1996,3.2012,3.204,3.2048,3.2123,3.21,3.2147,3.2232,3.2259,3.2284,3.2406,3.2387,3.2422,3.2487,3.254,3.2555,3.2567,3.2613,3.2629,3.2432,3.2432,3.2432,0,3.1906,3.1981,3.1972,3.2031,3.2058,3.2029,3.2096,3.2119,3.2167,3.2187,3.2158,3.2265,3.2287,3.2382,3.2412,3.2433,3.2452,3.2418,3.2553,3.2565,3.2577,3.2621,3.2638,3.2436,3.2435,3.2435,3.2435,0,3.2047,3.21,3.2149,3.2194,3.2227,3.229,3.2292,3.2326,3.2317,3.2325,3.2403,3.2428,3.248,3.2502,3.2494,3.2597,3.2581,3.2553,3.2503,3.2599,3.264,3.2656,3.2442,3.244,3.2439,3.2438,0,0,3.2195,3.2234,3.2253,3.2274,3.2309,3.2351,3.2413,3.2462,3.2493,3.2527,3.2581,3.2653,3.2628,3.2656,3.2651,3.2697,3.2795,3.2663,3.2664,3.2689,3.2913,3.2935,3.2954,3.2782,3.2785,3.2788,3.291,0,3.231,3.2417,3.2411,3.2513,3.2563,3.2536,3.2591,3.262,3.2629,3.2674,3.2685,3.2737,3.2698,3.2715,3.276,3.2774,3.284,3.2765,3.2834,3.2837,3.2828,3.2975,3.2998,3.3113,3.2926,3.2929,3.2931,0,3.2457,3.2495,3.2602,3.2631,3.2651,3.2701,3.2746,3.2789,3.2822,3.2825,3.2857,3.2845,3.291,3.2858,3.2949,3.2898,3.2926,3.2938,3.2942,3.295,3.2891,3.2988,3.3149,3.3167,3.2955,3.2953,3.2952,0,3.2557,3.2635,3.2709,3.2727,3.2762,3.2798,3.2815,3.2844,3.2874,3.2915,3.2935,3.2983,3.3009,3.3048,3.305,3.3011,3.3143,3.309,3.315,3.315,3.318,3.3178,3.3349,3.3196,3.3196,3.3195,3.3195,0,3.2686,3.2753,3.2754,3.28,3.2875,3.2868,3.2943,3.2956,3.2983,3.3032,3.3012,3.306,3.3058,3.3107,3.3109,3.3186,3.3198,3.3204,3.3204,3.3207,3.3206,3.3226,3.3219,3.32,3.3199,3.3198,3.3197,0,3.2811,3.2814,3.2893,3.292,3.2928,3.2982,3.3006,3.305,3.3057,3.312,3.3135,3.3147,3.3204,3.3209,3.3275,3.3276,3.3369,3.336,3.3358,3.3357,3.3417,3.3412,3.3608,3.3634,3.3462,3.3464,3.3465,0,3.2894,3.2944,3.2976,3.3007,3.3025,3.3076,3.3106,3.3102,3.3135,3.3177,3.3218,3.3271,3.3315,3.3407,3.3423,3.3473,3.3466,3.3531,3.3474,3.3475,3.3469,3.3467,3.3473,3.3543,3.3545,3.3547,3.3548,0,3.3042,3.3041,3.3085,3.313,3.3167,3.3203,3.3237,3.3264,3.3264,3.3303,3.3359,3.3393,3.346,3.3515,3.3564,3.3584,3.3567,3.3566,3.3582,3.3586,3.3584,3.3588,3.339,3.3561,3.356,3.3559,3.3558,3.3558,3.3149,3.3193,3.3223,3.3273,3.3298,3.333,3.3373,3.3386,3.3432,3.3485,3.3481,3.3544,3.3577,3.3642,3.3665,3.3716,3.3695,3.3719,3.3725,3.3731,3.3738,3.3574,3.3725,3.3725,3.3724,3.3724,3.3724,0,3.3297,3.3315,3.3361,3.3408,3.3449,3.3427,3.3464,3.3499,3.3555,3.3586,3.3629,3.3695,3.3748,3.3769,3.3821,3.3858,3.3852,3.3872,3.387,3.3876,3.3754,3.3735,3.3877,3.3877,3.3877,3.3877,3.3876,3.3876,3.3379,3.3454,3.3457,3.3544,3.3561,3.3622,3.3645,3.3675,3.37,3.3775,3.3818,3.383,3.3858,3.3913,3.3961,3.3966,3.3987,3.4011,3.4013,3.3899,3.3884,3.3869,3.3851,3.4015,3.4016,3.4131,3.4132,3.4132]},{"header":{"parameterUnit":"m.s-1","parameterCategory":1,"la1":30.2991,"la2":30.254,"lo1":-89.0895,"lo2":-89.0444,"dy":0.0017,"dx":0.0017,"nx":28,"ny":28,"refTime":"2025-07-08T21:00:00:Z","depth":0,"parameterNumber":3,"parameterNumberName":"V-component_of_WINDS"},"data":[0,0,0,0,0,0,0,0,0,0,0,0,0,0,0,0,0,0,0,0,0,0,0,0,0,0,0,0,0,0,0,0,0,0,0,0,0,0,0,0,0,0,0,0,0,0,0,0,0,0,0,0,0,0,0,0,0,0,2.0788,2.0789,0,2.0835,2.0836,2.0836,2.0838,2.0837,2.0837,2.0836,2.0883,2.0885,2.0886,0,0,0,0,0,0,0,0,0,0,0,0,0,2.0696,2.0697,2.0788,2.0789,2.079,2.0835,2.0836,2.0836,2.0838,2.0837,2.0837,2.0836,2.0882,2.0884,2.0887,0,0,0,0,0,0,0,0,0,0,0,0,0,2.0739,2.0698,2.0788,2.0796,2.0797,2.0835,2.0836,2.0837,2.0838,2.0837,2.0836,2.0836,2.0882,2.0884,2.0887,2.092,0,0,2.0895,2.0896,0,0,0,0,0,0,0,0,2.0736,2.0742,2.0794,2.0795,2.0797,2.083,2.082,2.0865,2.0838,2.0822,2.0836,2.0835,2.0866,2.087,2.088,2.0923,2.0925,2.0895,2.0897,2.0898,2.0899,0,0,0,0,0,0,0,2.0733,2.074,2.0807,2.0795,2.0796,2.0795,2.08,2.0829,2.0848,2.0824,2.0824,2.083,2.0866,2.0878,2.0882,2.0925,2.0895,2.0898,2.0899,2.09,2.0992,2.0993,0,0,0,0,0,0,2.0729,2.0737,2.0805,2.0808,2.0764,2.0798,2.0803,2.082,2.0848,2.0852,2.083,2.0829,2.0874,2.0878,2.0883,2.0921,2.0898,2.0901,2.0902,2.0991,2.0992,2.0993,0,0,0,0,0,0,2.0727,2.0735,2.0804,2.0773,2.0782,2.08,2.0819,2.0821,2.0833,2.0853,2.0856,2.0839,2.0873,2.0879,2.091,2.0923,2.0902,2.0904,2.099,2.0991,2.0992,2.0999,0,0,0,0,0,0,2.0724,2.0735,2.0749,2.0773,2.0783,2.0831,2.082,2.0823,2.0838,2.0837,2.0862,2.0865,2.0873,2.0906,2.0913,2.0926,2.0906,2.0989,2.0991,2.0992,2.0998,2.1,2.1003,0,0,0,0,0,2.0721,2.075,2.075,2.0758,2.0802,2.0832,2.0837,2.0847,2.0839,2.0852,2.0864,2.0864,2.092,2.0909,2.0917,2.0931,2.0988,2.099,2.0992,2.0997,2.1,2.1002,0,0,0,0,0,0,2.0728,2.0753,2.0754,2.0791,2.0809,2.0832,2.085,2.085,2.0871,2.087,2.088,2.0885,2.0915,2.0926,2.0913,2.0962,2.0953,2.0956,2.0954,2.0957,2.096,2.0956,2.0908,0,0,0,0,0,2.0733,2.0756,2.0777,2.0808,2.0817,2.0832,2.0845,2.085,2.0869,2.0877,2.0892,2.0909,2.093,2.0945,2.0966,2.0999,2.1003,2.1012,2.1015,2.1016,2.1019,2.1034,2.1037,2.0999,2.0999,2.0999,0,0,2.0745,2.0762,2.0777,2.081,2.0825,2.0846,2.0838,2.0863,2.0879,2.0881,2.091,2.0921,2.0941,2.0972,2.0986,2.0982,2.103,2.1019,2.102,2.1022,2.1036,2.1039,2.1043,2.1,2.1,2.1,0,0,2.0778,2.0795,2.082,2.0834,2.0856,2.0864,2.087,2.0892,2.0899,2.0928,2.0929,2.0947,2.0984,2.0997,2.1009,2.1041,2.1041,2.1048,2.106,2.1074,2.1077,2.108,2.1089,2.1092,2.105,2.105,2.105,0,2.0791,2.0825,2.0833,2.0857,2.087,2.0871,2.0895,2.0908,2.0936,2.0944,2.0939,2.0982,2.0997,2.1029,2.1036,2.1046,2.1051,2.1045,2.1076,2.1079,2.1082,2.109,2.1094,2.1051,2.1051,2.1051,2.1051,0,2.0837,2.086,2.0878,2.0903,2.0918,2.0942,2.0952,2.0965,2.0968,2.0976,2.1003,2.102,2.1042,2.105,2.1054,2.1081,2.1078,2.1074,2.1065,2.1086,2.1094,2.1097,2.1052,2.1051,2.1051,2.1051,0,0,2.0879,2.0904,2.091,2.0919,2.0941,2.0958,2.098,2.1002,2.1012,2.1029,2.1046,2.1076,2.1071,2.1084,2.1089,2.1101,2.1122,2.1096,2.1096,2.1098,2.115,2.1151,2.1155,2.1121,2.1122,2.1122,2.1147,0,2.0912,2.0952,2.0957,2.0992,2.1011,2.101,2.1029,2.1043,2.105,2.1067,2.1075,2.1094,2.1088,2.1095,2.1108,2.1117,2.1132,2.1115,2.1135,2.1136,2.113,2.116,2.1163,2.1185,2.1151,2.1151,2.1152,0,2.0958,2.0974,2.101,2.1024,2.1033,2.105,2.1067,2.1083,2.1098,2.1102,2.1114,2.1116,2.1136,2.1126,2.1152,2.114,2.1149,2.1154,2.1155,2.1157,2.1145,2.1161,2.1193,2.1196,2.1157,2.1157,2.1156,0,2.098,2.1012,2.1036,2.1044,2.1063,2.1074,2.1082,2.1096,2.1107,2.1122,2.1128,2.1145,2.1155,2.1167,2.1172,2.1165,2.1197,2.1188,2.12,2.1199,2.1207,2.1206,2.1239,2.1214,2.1214,2.1214,2.1214,0,2.1016,2.1038,2.1046,2.1061,2.1083,2.1089,2.111,2.1118,2.1129,2.1144,2.1145,2.1158,2.1165,2.1179,2.1183,2.1203,2.1208,2.121,2.1211,2.121,2.1209,2.1215,2.1213,2.1215,2.1214,2.1214,2.1214,0,2.1046,2.1053,2.1079,2.1093,2.1097,2.1112,2.1124,2.1137,2.1143,2.1161,2.1166,2.1175,2.1191,2.1197,2.1218,2.122,2.1242,2.1242,2.1237,2.1237,2.1247,2.1246,2.1285,2.1289,2.1262,2.1262,2.1262,0,2.1068,2.1084,2.1099,2.1108,2.1116,2.1132,2.1142,2.1147,2.1157,2.1172,2.1183,2.1199,2.1212,2.1237,2.1245,2.1259,2.1259,2.1271,2.1261,2.1258,2.1257,2.1255,2.1256,2.1273,2.1274,2.1274,2.1274,0,2.1106,2.1107,2.1122,2.1136,2.1148,2.116,2.1172,2.1179,2.1185,2.1196,2.1212,2.1222,2.1241,2.1256,2.127,2.1277,2.1276,2.1277,2.128,2.1279,2.1274,2.1275,2.1241,2.1276,2.1276,2.1276,2.1276,2.1276,2.1131,2.1143,2.1154,2.117,2.1178,2.1188,2.12,2.1206,2.1219,2.1235,2.1236,2.1252,2.1263,2.1281,2.1288,2.13,2.1297,2.1302,2.1303,2.1304,2.1304,2.1273,2.1303,2.1303,2.1303,2.1303,2.1303,0,2.1166,2.1172,2.1186,2.1201,2.1212,2.1209,2.122,2.123,2.1244,2.1254,2.1265,2.1282,2.1295,2.1303,2.1316,2.1323,2.1323,2.1327,2.1326,2.1327,2.1307,2.1302,2.1327,2.1327,2.1326,2.1326,2.1326,2.1326,2.1186,2.1206,2.1208,2.123,2.1236,2.1252,2.1258,2.1266,2.1273,2.1292,2.1302,2.1307,2.1315,2.1328,2.1339,2.134,2.1345,2.1348,2.1349,2.1331,2.1328,2.1326,2.1321,2.1349,2.1349,2.1368,2.1368,2.1368]}]]